Flag for United Kingdom Weather past 2 weeks in Newcastle upon Tyne, England, United Kingdom

Now
54 °F

Passing clouds.


Feels Like: 51 °F
Forecast: 41 / 54 °F
Wind: 8 mph from South

Location: Newcastle

Current Time: Oct 20, 2014 at 10:58:52 PM

Latest Report: Oct 20, 2014 at 10:20 PM


Visibility: N/A

Pressure: 29.59 "Hg

Humidity: 82%

Dew point: 48 °F

Location of Newcastle upon TyneLocation

Historic Weather in Newcastle upon Tyne — Graph

°F

Newcastle upon Tyne temperature yesterday

Maximum temperature yesterday: 63 °F (at 1:50 PM)
Minimum temperature yesterday: 52 °F (at 9:20 PM)
Average temperature yesterday: 58 °F

Past Weeks' High & Low Weather Summary

 TemperatureHumidityPressure
High68 °F (Oct 18, 12:50 PM)100% (Oct 6, 10:50 PM)29.89 "Hg (Oct 6, 10:50 PM)
Low37 °F (Oct 11, 5:50 AM)55% (Oct 7, 1:50 PM)29.12 "Hg (Oct 8, 8:20 PM)
Average51 °F85%29.61 "Hg
* Reported Oct 5 9:20 PM — Oct 20 9:50 PM, Newcastle upon Tyne, Weather by CustomWeather, © 2014

Note: Actual official high and low records may vary slightly from our data, if they occured in-between our weather recording intervals... More about our weather records

Advertising

Newcastle upon Tyne weather history for previous 24 hours

 ConditionsComfort  
Time TempWeatherWind HumidityBarometerVisibility
9:50 PM
Oct 20
54 °FPassing clouds.9 mph82%29.62 "HgN/A
9:20 PM52 °FPassing clouds.8 mph82%29.62 "HgN/A
8:50 PM52 °FPassing clouds.6 mph82%29.65 "HgN/A
8:20 PM52 °FPassing clouds.5 mph82%29.68 "HgN/A
7:50 PM52 °FPassing clouds.5 mph82%29.68 "HgN/A
7:20 PM52 °FPassing clouds.6 mph82%29.71 "HgN/A
6:50 PM52 °FPassing clouds.9 mph82%29.71 "HgN/A
6:20 PM52 °FPassing clouds.8 mph82%29.71 "HgN/A
5:50 PM52 °FPassing clouds.8 mph82%29.71 "HgN/A
5:20 PM54 °FScattered clouds.9 mph82%29.74 "HgN/A
4:50 PM55 °FScattered clouds.10 mph77%29.74 "HgN/A
4:20 PM54 °FScattered clouds.13 mph82%29.74 "HgN/A
3:50 PM55 °FScattered showers. Partly sunny.10 mph77%29.74 "HgN/A
3:20 PM54 °FPassing clouds.12 mph82%29.74 "HgN/A
2:50 PM54 °FSprinkles. Scattered clouds.14 mph88%29.77 "HgN/A
2:20 PM55 °FSprinkles. Scattered clouds.16 mph77%29.77 "HgN/A
1:50 PM57 °FPassing clouds.15 mph77%29.77 "HgN/A
1:20 PM55 °FScattered clouds.17 mph77%29.77 "HgN/A
12:50 PM55 °FScattered showers. Scattered clouds.13 mph82%29.77 "HgN/A
12:20 PM55 °FScattered showers. Scattered clouds.12 mph82%29.77 "HgN/A
11:20 AM54 °FScattered showers. Passing clouds.14 mph82%29.80 "HgN/A
10:50 AM52 °FPassing clouds.14 mph88%29.77 "HgN/A
10:20 AM52 °FPassing clouds.12 mph88%29.77 "HgN/A
9:50 AM52 °FPassing clouds.7 mph88%29.80 "HgN/A
8:50 AM50 °FSprinkles. Scattered clouds.9 mph94%29.80 "HgN/A
8:20 AM52 °FScattered showers. Passing clouds.6 mph88%29.80 "HgN/A
7:50 AM52 °FSprinkles. Passing clouds.7 mph82%29.80 "HgN/A
7:20 AM52 °FPassing clouds.9 mph88%29.77 "HgN/A
6:50 AM52 °FPassing clouds.12 mph88%29.77 "HgN/A
6:20 AM50 °FPassing clouds.10 mph94%29.77 "HgN/A
5:50 AM50 °FPassing clouds.10 mph94%29.77 "HgN/A
4:20 AM52 °FPassing clouds.13 mph82%29.77 "HgN/A
3:20 AM50 °FPassing clouds.13 mph82%29.77 "HgN/A
2:50 AM50 °FPassing clouds.15 mph82%29.77 "HgN/A
2:20 AM52 °FPassing clouds.14 mph77%29.77 "HgN/A
1:50 AM50 °FPassing clouds.14 mph82%29.77 "HgN/A
1:20 AM50 °FPassing clouds.15 mph82%29.77 "HgN/A
12:50 AM50 °FPassing clouds.13 mph82%29.77 "HgN/A
12:20 AM52 °FPassing clouds.15 mph82%29.74 "HgN/A
11:50 PM
Oct 19
52 °FPassing clouds.15 mph88%29.74 "HgN/A
11:20 PM52 °FPassing clouds.14 mph82%29.74 "HgN/A
10:50 PM52 °FPassing clouds.16 mph82%29.71 "HgN/A
10:20 PM52 °FPassing clouds.15 mph82%29.71 "HgN/A
Weather by CustomWeather, © 2014

See weather overviewHow to use our weather pages